軌道要素
Epoch 2024 Oct. 17.0 TT = JDT 2460600.5
T 2025 Jan. 9.83933 TT Rudenko
q 5.3975950 (2000.0) P Q
z -0.0008143 Peri. 116.66264 -0.22016343 -0.93867844
+/-0.0000157 Node 339.66200 +0.36822009 +0.17192599
e 1.0043951 Incl. 49.77124 +0.90329510 -0.29887162
From 136 observations 2024 July 14-Nov. 10, mean residual 0".5.
|